This is the latest recevied weather packets stored in our database for station/object OM1PU-6. If no packets are shown the sender has not sent any weather packets the latest 1 day(s).
| Time | Temp. | Humidity | Pressure | Rain* | Wind** | Luminosity | Snow |
|---|---|---|---|---|---|---|---|
| 1778005098 | 19.44° C | 55% | 1019.1 hPa | 0 mm | 1.79 m/s, 181° | - | - |
| 1778004197 | 19.44° C | 53% | 1019.2 hPa | 0 mm | 0.89 m/s, 152° | - | - |
| 1778003296 | 20° C | 52% | 1019.2 hPa | 0 mm | 3.13 m/s, 264° | - | - |
| 1778002398 | 20.56° C | 51% | 1019.1 hPa | 0 mm | 1.79 m/s, 192° | - | - |
| 1778001497 | 20.56° C | 49% | 1018.7 hPa | 0 mm | 1.79 m/s, 110° | - | - |
| 1778000597 | 21.11° C | 47% | 1019.1 hPa | 0 mm | 1.34 m/s, 240° | - | - |
| 1777999697 | 21.67° C | 44% | 1019.2 hPa | 0 mm | 2.24 m/s, 138° | - | - |
| 1777998797 | 21.67° C | 43% | 1019.3 hPa | 0 mm | 2.24 m/s, 159° | - | - |
| 1777997897 | 22.22° C | 45% | 1019.6 hPa | 0 mm | 0.89 m/s, 188° | - | - |
| 1777996998 | 22.78° C | 43% | 1019.6 hPa | 0 mm | 1.79 m/s, 211° | - | - |
| 1777996097 | 23.33° C | 43% | 1019.8 hPa | 0 mm | 3.13 m/s, 168° | - | - |
| 1777995198 | 23.89° C | 42% | 1019.7 hPa | 0 mm | 2.24 m/s, 170° | - | - |
| 1777994297 | 24.44° C | 41% | 1019.8 hPa | 0 mm | 4.92 m/s, 186° | - | - |
| 1777993398 | 25.56° C | 41% | 1019.3 hPa | 0 mm | 1.34 m/s, 232° | - | - |
| 1777992497 | 25.56° C | 39% | 1019.3 hPa | 0 mm | 1.79 m/s, 191° | - | - |
| 1777991597 | 26.11° C | 39% | 1019.3 hPa | 0 mm | 1.79 m/s, 86° | - | - |
| 1777990697 | 26.67° C | 38% | 1019.2 hPa | 0 mm | 0.89 m/s, 129° | - | - |
| 1777989798 | 26.67° C | 37% | 1019.3 hPa | 0 mm | 2.68 m/s, 143° | - | - |
| 1777988897 | 27.22° C | 36% | 1019.3 hPa | 0 mm | 2.24 m/s, 203° | - | - |
| 1777987997 | 27.22° C | 35% | 1019.3 hPa | 0 mm | 2.24 m/s, 223° | - | - |
| 1777987097 | 27.22° C | 35% | 1019.4 hPa | 0 mm | 2.68 m/s, 123° | - | - |
| 1777986197 | 27.22° C | 35% | 1019.7 hPa | 0 mm | 2.24 m/s, 145° | - | - |
| 1777985297 | 27.22° C | 35% | 1019.6 hPa | 0 mm | 1.79 m/s, 155° | - | - |
| 1777984397 | 27.22° C | 38% | 1020 hPa | 0 mm | 0.89 m/s, 150° | - | - |
| 1777983497 | 26.11° C | 41% | 1020.2 hPa | 0 mm | 1.34 m/s, 103° | - | - |
* Rain latest 24 hours (hover to see other rain measurements)
** Current wind speed in m/s (hover to see current wind gust speed)